Current weather by "City, St" or "zip code"  
 

Current Conditions: Sanford, Sanford Regional Airport, ME

Fair


45.0 F

Last Updated on Oct 24 2020, 10:56 pm EDT
Humidity: 71%
Wind Speed: N 0.0 mph
Barometer 30.01 in
Dewpoint: 36.0 F
Visibility: 10.00 mi
Precip: --
Heat Index: NA
Wind Chill: NA
Current conditions at:

Sanford, Sanford Regional Airport, ME (KSFM)

Lat: 43.4 Lon: 70.71667

Local Radar Image active severe weather and emergency alerts image image weather storm and storm spotter reports image weather observation monitoring service image
Local
Radar
Active
Alerts
Storm Reports Obs
Monitoring

Sign-up For Email & Text Message Weather Alert Notification Services



Advertise Here

Observation History for Sanford, Sanford Regional Airport, ME


Time Wind
(mph)
Vis
(mi)
Weather Precip (in) Temperature (F) Relative
Humidity
Wind
Chill
(F)
Heat
Index
(F)
Pressure
Air Dwpt altimeter
(in)
sea level
(mb)
Rmks
10:56 pm EDT N 0.0 10.00 Fair -- 45.0 36.0 71% NA NA 30.01 1016.6
9:56 pm EDT N 6.9 10.00 Overcast -- 48.0 37.9 68% 45 NA 29.99 1016.0
8:56 pm EDT N 9.2 10.00 A Few Clouds -- 50.0 37.9 63% 46 NA 29.96 1014.9
7:56 pm EDT NW 10.4 10.00 Overcast -- 52.0 39.9 64% 48 NA 29.94 1014.0
6:56 pm EDT NW 6.9 10.00 Overcast -- 56.0 43.0 62% 54 NA 29.90 1012.9
5:56 pm EDT NW 8.1 10.00 Overcast 00.08 58.0 46.0 65% 56 NA 29.88 1012.0
4:56 pm EDT NW 12.7 G 17.3 10.00 Overcast -- 60.0 53.1 78% 58 NA 29.85 1011.0
3:56 pm EDT NW 11.5 G 16.1 10.00 Overcast -- 65.0 57.9 78% NA NA 29.82 1010.2
2:56 pm EDT W 8.1 10.00 Overcast 00.05 66.0 57.0 73% NA NA 29.82 1010.1
1:56 pm EDT W 8.1 10.00 Overcast 00.05 65.0 57.0 76% NA NA 29.82 1010.3
12:56 pm EDT SW 5.8 10.00 Mostly Cloudy 00.01 63.0 55.9 78% 63 NA 29.84 1010.6
11:56 am EDT SW 6.9 10.00 Overcast -- 60.0 55.0 84% 59 NA 29.87 1011.6
10:56 am EDT SW 5.8 10.00 Overcast -- 59.0 55.0 87% 58 NA 29.88 1012.2
9:56 am EDT S 5.8 10.00 Overcast -- 57.0 54.0 90% 56 NA 29.90 1012.7
8:56 am EDT 3.5 10.00 Overcast -- 55.0 54.0 96% NA NA 29.92 1013.4
7:56 am EDT S 3.5 7.00 Overcast Trace 54.0 54.0 100% NA NA 29.93 1013.8
6:56 am EDT SW 8.1 5.00 Light Rain Fog/Mist 00.04 54.0 54.0 100% 52 NA 29.96 1014.8
5:56 am EDT N 0.0 6.00 Fog/Mist -- 55.0 54.0 96% NA NA 29.97 1015.1
4:56 am EDT S 4.6 10.00 Overcast -- 55.0 54.0 96% 54 NA 29.97 1015.3
3:56 am EDT S 3.5 2.00 Fog/Mist Trace 54.0 54.0 100% NA NA 30.01 1016.5
2:56 am EDT N 0.0 10.00 Overcast -- 54.0 53.1 97% NA NA 30.03 1017.1
1:56 am EDT N 0.0 10.00 Overcast -- 54.0 53.1 97% NA NA 30.04 1017.6
12:56 am EDT N 0.0 10.00 Overcast -- 53.0 53.1 100% NA NA 30.05 1018.0
11:56 pm EDT N 0.0 10.00 Overcast -- 54.0 53.1 97% NA NA 30.07 1018.5

Regional Weather Observation


Rochester - Skyhaven Airport, NH (KDAW)

Overcast
46.0 F

Sanford, Sanford Regional Airport, ME (KSFM)

Fair
45.0 F

Portland, Portland International Jetport, ME (KPWM)

Mostly Cloudy
46.0 F

Laconia, Laconia Municipal Airport, NH (KLCI)

Fair
44.0 F

Pease Air Force Base / Portsmouth, NH (KPSM)

Mostly Cloudy
47.0 F

Concord Municipal Airport, NH (KCON)

Fair
42.0 F